Time,TemperatureF,DewpointF,PressureIn,WindDirection,WindDirectionDegrees,WindSpeedMPH,WindSpeedGustMPH,Humidity,HourlyPrecipIn,Conditions,Clouds,dailyrainin,SoftwareType,DateUTC
2013-02-07 00:00:00,69.5,64.1,30.07,ESE,114,0.9,2.0,83,0.00,RA,,0.00,WeatherDisplay:10.37,2013-02-07 05:00:00,
2013-02-07 00:05:00,69.7,64.0,30.07,ESE,114,0.4,1.1,82,0.00,RA,,0.00,WeatherDisplay:10.37,2013-02-07 05:05:00,
2013-02-07 00:10:00,69.7,64.3,30.06,ESE,114,0.5,1.1,83,0.00,CLR,,0.00,WeatherDisplay:10.37,2013-02-07 05:10:00,
2013-02-07 00:15:00,69.7,64.3,30.06,ESE,114,1.0,2.3,83,0.00,CLR,,0.00,WeatherDisplay:10.37,2013-02-07 05:15:00,
2013-02-07 00:20:00,69.6,64.2,30.06,ESE,114,0.6,1.1,83,0.00,CLR,,0.00,WeatherDisplay:10.37,2013-02-07 05:20:00,
2013-02-07 00:25:00,69.6,64.2,30.06,ESE,115,1.7,4.0,83,0.00,CLR,,0.00,WeatherDisplay:10.37,2013-02-07 05:25:00,
2013-02-07 00:30:00,69.7,64.3,30.06,ESE,115,1.1,3.5,83,0.00,CLR,,0.00,WeatherDisplay:10.37,2013-02-07 05:30:00,
2013-02-07 00:35:00,69.7,64.3,30.06,ESE,115,1.6,3.5,83,0.00,CLR,,0.00,WeatherDisplay:10.37,2013-02-07 05:35:00,
2013-02-07 00:40:00,69.8,64.4,30.06,ESE,115,1.5,3.5,83,0.00,CLR,,0.00,WeatherDisplay:10.37,2013-02-07 05:40:00,
2013-02-07 00:45:00,69.8,64.1,30.06,ESE,115,0.3,2.0,82,0.00,CLR,,0.00,WeatherDisplay:10.37,2013-02-07 05:45:00,
2013-02-07 00:50:00,69.8,64.4,30.06,ESE,115,0.8,2.3,83,0.00,CLR,,0.00,WeatherDisplay:10.37,2013-02-07 05:50:00,
2013-02-07 00:56:00,69.8,64.4,30.05,ESE,115,0.7,1.1,83,0.00,CLR,,0.00,WeatherDisplay:10.37,2013-02-07 05:56:00,
2013-02-07 01:01:00,69.7,64.3,30.06,ESE,115,0.0,1.1,83,0.00,CLR,,0.00,WeatherDisplay:10.37,2013-02-07 06:01:00,
2013-02-07 01:06:00,69.6,64.2,30.06,ESE,115,0.9,1.1,83,0.00,CLR,,0.00,WeatherDisplay:10.37,2013-02-07 06:06:00,
2013-02-07 01:11:00,69.5,64.5,30.06,ESE,115,0.0,2.3,84,0.00,CLR,,0.00,WeatherDisplay:10.37,2013-02-07 06:11:00,
2013-02-07 01:16:00,69.3,64.3,30.06,ESE,115,0.5,0.0,84,0.00,CLR,,0.00,WeatherDisplay:10.37,2013-02-07 06:16:00,
2013-02-07 01:21:00,69.1,64.1,30.06,ESE,115,0.4,1.1,84,0.00,CLR,,0.00,WeatherDisplay:10.37,2013-02-07 06:21:00,
2013-02-07 01:26:00,69.0,63.6,30.06,ESE,115,0.0,1.1,83,0.00,CLR,,0.00,WeatherDisplay:10.37,2013-02-07 06:26:00,
2013-02-07 01:31:00,68.8,63.8,30.06,ESE,115,0.6,1.1,84,0.00,CLR,,0.00,WeatherDisplay:10.37,2013-02-07 06:31:00,
2013-02-07 01:36:00,68.8,64.1,30.06,ESE,115,0.1,1.1,85,0.00,CLR,,0.00,WeatherDisplay:10.37,2013-02-07 06:36:00,
2013-02-07 01:41:00,68.6,64.2,30.05,ESE,115,0.0,0.0,86,0.00,CLR,,0.00,WeatherDisplay:10.37,2013-02-07 06:41:00,
2013-02-07 01:46:00,68.3,63.6,30.05,ESE,115,0.0,0.0,85,0.00,CLR,,0.00,WeatherDisplay:10.37,2013-02-07 06:46:00,
2013-02-07 01:51:00,68.0,63.7,30.05,ESE,115,0.0,0.0,86,0.00,CLR,,0.00,WeatherDisplay:10.37,2013-02-07 06:51:00,
2013-02-07 01:56:00,67.7,63.4,30.05,ESE,115,0.1,1.1,86,0.00,CLR,,0.00,WeatherDisplay:10.37,2013-02-07 06:56:00,
2013-02-07 02:01:00,67.5,63.5,30.05,ESE,115,0.0,0.0,87,0.00,CLR,,0.00,WeatherDisplay:10.37,2013-02-07 07:01:00,
2013-02-07 02:06:00,67.1,63.1,30.05,ESE,115,0.0,0.0,87,0.00,CLR,,0.00,WeatherDisplay:10.37,2013-02-07 07:06:00,
2013-02-07 02:11:00,66.9,62.9,30.05,ESE,115,0.0,0.0,87,0.00,CLR,,0.00,WeatherDisplay:10.37,2013-02-07 07:11:00,
2013-02-07 02:16:00,66.6,62.6,30.05,ESE,115,0.0,0.0,87,0.00,CLR,,0.00,WeatherDisplay:10.37,2013-02-07 07:16:00,
2013-02-07 02:21:00,66.3,62.3,30.05,ESE,115,0.0,0.0,87,0.00,CLR,,0.00,WeatherDisplay:10.37,2013-02-07 07:21:00,
2013-02-07 02:26:00,66.1,62.8,30.05,ESE,115,0.0,0.0,89,0.00,CLR,,0.00,WeatherDisplay:10.37,2013-02-07 07:26:00,
2013-02-07 02:31:00,66.0,63.0,30.05,ESE,115,0.0,0.0,90,0.00,CLR,,0.00,WeatherDisplay:10.37,2013-02-07 07:31:00,
2013-02-07 02:36:00,65.8,62.8,30.05,ESE,115,0.0,0.0,90,0.00,CLR,,0.00,WeatherDisplay:10.37,2013-02-07 07:36:00,
2013-02-07 02:41:00,65.5,62.5,30.05,ESE,115,0.0,0.0,90,0.00,CLR,,0.00,WeatherDisplay:10.37,2013-02-07 07:41:00,
2013-02-07 02:46:00,65.3,62.3,30.04,ESE,115,0.0,0.0,90,0.00,CLR,,0.00,WeatherDisplay:10.37,2013-02-07 07:46:00,
2013-02-07 02:51:00,65.2,62.5,30.04,ESE,115,0.0,0.0,91,0.00,CLR,,0.00,WeatherDisplay:10.37,2013-02-07 07:51:00,
2013-02-07 02:56:00,65.0,62.3,30.04,ESE,115,0.0,0.0,91,0.00,CLR,,0.00,WeatherDisplay:10.37,2013-02-07 07:56:00,
2013-02-07 03:01:00,64.9,62.2,30.04,ESE,115,0.0,0.0,91,0.00,CLR,,0.00,WeatherDisplay:10.37,2013-02-07 08:01:00,
2013-02-07 03:06:00,64.7,62.0,30.04,ESE,115,0.0,0.0,91,0.00,CLR,,0.00,WeatherDisplay:10.37,2013-02-07 08:06:00,
2013-02-07 03:11:00,64.5,61.8,30.04,ESE,115,0.0,0.0,91,0.00,CLR,,0.00,WeatherDisplay:10.37,2013-02-07 08:11:00,
2013-02-07 03:16:00,64.4,62.0,30.03,ESE,115,0.0,0.0,92,0.00,CLR,,0.00,WeatherDisplay:10.37,2013-02-07 08:16:00,
2013-02-07 03:21:00,64.3,61.9,30.04,ESE,115,0.0,0.0,92,0.00,CLR,,0.00,WeatherDisplay:10.37,2013-02-07 08:21:00,
2013-02-07 03:26:00,64.2,61.8,30.03,ESE,115,0.0,0.0,92,0.00,CLR,,0.00,WeatherDisplay:10.37,2013-02-07 08:26:00,
2013-02-07 03:31:00,64.1,61.7,30.03,ESE,115,0.0,0.0,92,0.00,CLR,,0.00,WeatherDisplay:10.37,2013-02-07 08:31:00,
2013-02-07 03:36:00,64.0,61.6,30.04,ESE,115,0.0,0.0,92,0.00,CLR,,0.00,WeatherDisplay:10.37,2013-02-07 08:36:00,
2013-02-07 03:41:00,63.9,61.5,30.04,ESE,115,0.0,0.0,92,0.00,CLR,,0.00,WeatherDisplay:10.37,2013-02-07 08:41:00,
2013-02-07 03:49:00,63.8,61.7,30.04,ESE,115,0.0,0.0,93,0.00,CLR,,0.00,WeatherDisplay:10.37,2013-02-07 08:49:00,
2013-02-07 03:54:00,63.9,61.8,30.04,ESE,115,0.0,0.0,93,0.00,CLR,,0.00,WeatherDisplay:10.37,2013-02-07 08:54:00,
2013-02-07 03:59:00,63.9,61.8,30.03,ESE,115,0.0,0.0,93,0.00,CLR,,0.00,WeatherDisplay:10.37,2013-02-07 08:59:00,
2013-02-07 04:04:00,63.8,61.7,30.03,ESE,115,0.0,0.0,93,0.00,CLR,,0.00,WeatherDisplay:10.37,2013-02-07 09:04:00,
2013-02-07 04:09:00,63.7,61.6,30.03,ESE,115,0.0,0.0,93,0.00,CLR,,0.00,WeatherDisplay:10.37,2013-02-07 09:09:00,
2013-02-07 04:14:00,63.5,61.4,30.03,ESE,115,0.0,0.0,93,0.00,CLR,,0.00,WeatherDisplay:10.37,2013-02-07 09:14:00,
2013-02-07 04:19:00,63.5,61.7,30.03,ESE,115,0.0,0.0,94,0.00,CLR,,0.00,WeatherDisplay:10.37,2013-02-07 09:19:00,
2013-02-07 04:24:00,63.5,61.7,30.03,ESE,115,0.0,0.0,94,0.00,CLR,,0.00,WeatherDisplay:10.37,2013-02-07 09:24:00,
2013-02-07 04:29:00,63.5,61.7,30.03,ESE,115,0.0,0.0,94,0.00,CLR,,0.00,WeatherDisplay:10.37,2013-02-07 09:29:00,
2013-02-07 04:34:00,63.6,61.8,30.03,ESE,115,0.0,0.0,94,0.00,CLR,,0.00,WeatherDisplay:10.37,2013-02-07 09:34:00,
2013-02-07 04:39:00,63.5,61.7,30.03,ESE,115,0.0,0.0,94,0.00,CLR,,0.00,WeatherDisplay:10.37,2013-02-07 09:39:00,
2013-02-07 04:44:00,63.4,61.6,30.03,ESE,115,0.0,0.0,94,0.00,CLR,,0.00,WeatherDisplay:10.37,2013-02-07 09:44:00,
2013-02-07 04:49:00,63.2,61.4,30.03,ESE,115,0.0,0.0,94,0.00,CLR,,0.00,WeatherDisplay:10.37,2013-02-07 09:49:00,
2013-02-07 04:54:00,63.1,61.3,30.04,ESE,115,0.0,0.0,94,0.00,CLR,,0.00,WeatherDisplay:10.37,2013-02-07 09:54:00,
2013-02-07 04:59:00,63.0,61.2,30.03,ESE,115,0.0,0.0,94,0.00,CLR,,0.00,WeatherDisplay:10.37,2013-02-07 09:59:00,
2013-02-07 05:04:00,63.0,61.2,30.03,ESE,115,0.0,0.0,94,0.00,CLR,,0.00,WeatherDisplay:10.37,2013-02-07 10:04:00,
2013-02-07 05:09:00,63.0,61.2,30.03,ESE,115,0.0,0.0,94,0.00,CLR,,0.00,WeatherDisplay:10.37,2013-02-07 10:09:00,
2013-02-07 05:14:00,63.0,61.5,30.03,ESE,115,0.0,0.0,95,0.00,CLR,,0.00,WeatherDisplay:10.37,2013-02-07 10:14:00,
2013-02-07 05:19:00,63.1,61.6,30.03,ESE,115,0.0,0.0,95,0.00,CLR,,0.00,WeatherDisplay:10.37,2013-02-07 10:19:00,
2013-02-07 05:24:00,63.1,61.6,30.03,ESE,115,0.0,0.0,95,0.00,CLR,,0.00,WeatherDisplay:10.37,2013-02-07 10:24:00,
2013-02-07 05:29:00,63.1,61.6,30.03,ESE,115,0.0,0.0,95,0.00,CLR,,0.00,WeatherDisplay:10.37,2013-02-07 10:29:00,
2013-02-07 05:34:00,63.0,61.5,30.03,ESE,115,0.0,0.0,95,0.00,CLR,,0.00,WeatherDisplay:10.37,2013-02-07 10:34:00,
2013-02-07 05:39:00,63.0,61.5,30.03,ESE,115,0.0,0.0,95,0.00,CLR,,0.00,WeatherDisplay:10.37,2013-02-07 10:39:00,
2013-02-07 05:44:00,62.9,61.4,30.03,ESE,115,0.0,0.0,95,0.00,CLR,,0.00,WeatherDisplay:10.37,2013-02-07 10:44:00,
2013-02-07 05:49:00,62.7,61.2,30.03,ESE,115,0.0,0.0,95,0.00,CLR,,0.00,WeatherDisplay:10.37,2013-02-07 10:49:00,
2013-02-07 05:54:00,62.7,61.2,30.03,ESE,115,0.0,0.0,95,0.00,CLR,,0.00,WeatherDisplay:10.37,2013-02-07 10:54:00,
2013-02-07 05:59:00,62.7,61.2,30.03,ESE,115,0.0,0.0,95,0.00,CLR,,0.00,WeatherDisplay:10.37,2013-02-07 10:59:00,
2013-02-07 06:04:00,62.6,61.1,30.03,ESE,115,0.0,0.0,95,0.00,CLR,,0.00,WeatherDisplay:10.37,2013-02-07 11:04:00,
2013-02-07 06:09:00,62.6,61.1,30.03,ESE,115,0.0,0.0,95,0.00,CLR,,0.00,WeatherDisplay:10.37,2013-02-07 11:09:00,
2013-02-07 06:14:00,62.6,61.4,30.03,ESE,115,0.0,0.0,96,0.00,CLR,,0.00,WeatherDisplay:10.37,2013-02-07 11:14:00,
2013-02-07 06:19:00,62.5,61.0,30.03,ESE,115,0.0,0.0,95,0.00,CLR,,0.00,WeatherDisplay:10.37,2013-02-07 11:19:00,
2013-02-07 06:24:00,62.4,60.9,30.03,ESE,115,0.0,0.0,95,0.00,CLR,,0.00,WeatherDisplay:10.37,2013-02-07 11:24:00,
2013-02-07 06:29:00,62.4,61.2,30.03,ESE,115,0.0,0.0,96,0.00,CLR,,0.00,WeatherDisplay:10.37,2013-02-07 11:29:00,
2013-02-07 06:34:00,62.3,61.1,30.04,ESE,115,0.0,0.0,96,0.00,CLR,,0.00,WeatherDisplay:10.37,2013-02-07 11:34:00,
2013-02-07 06:39:00,62.2,60.8,30.04,ESE,115,0.0,0.0,95,0.00,CLR,,0.00,WeatherDisplay:10.37,2013-02-07 11:39:00,
2013-02-07 06:44:00,62.2,60.8,30.04,ESE,115,0.0,0.0,95,0.00,CLR,,0.00,WeatherDisplay:10.37,2013-02-07 11:44:00,
2013-02-07 06:49:00,62.2,61.0,30.04,ESE,115,0.0,0.0,96,0.00,CLR,,0.00,WeatherDisplay:10.37,2013-02-07 11:49:00,
2013-02-07 06:54:00,62.2,61.0,30.04,ESE,115,0.0,0.0,96,0.00,CLR,,0.00,WeatherDisplay:10.37,2013-02-07 11:54:00,
2013-02-07 06:59:00,62.1,60.7,30.05,ESE,115,0.0,0.0,95,0.00,CLR,,0.00,WeatherDisplay:10.37,2013-02-07 11:59:00,
2013-02-07 07:04:00,62.2,61.0,30.05,ESE,115,0.0,0.0,96,0.00,CLR,,0.00,WeatherDisplay:10.37,2013-02-07 12:04:00,
2013-02-07 07:09:00,62.0,60.6,30.05,ESE,115,0.0,0.0,95,0.00,CLR,,0.00,WeatherDisplay:10.37,2013-02-07 12:09:00,
2013-02-07 07:14:00,62.2,61.0,30.05,ESE,115,0.0,0.0,96,0.00,CLR,,0.00,WeatherDisplay:10.37,2013-02-07 12:14:00,
2013-02-07 07:19:00,62.2,61.0,30.05,ESE,115,0.0,0.0,96,0.00,CLR,,0.00,WeatherDisplay:10.37,2013-02-07 12:19:00,
2013-02-07 07:24:00,62.1,60.7,30.05,ESE,115,0.0,0.0,95,0.00,CLR,,0.00,WeatherDisplay:10.37,2013-02-07 12:24:00,
2013-02-07 07:29:00,62.1,60.9,30.05,ESE,115,0.0,0.0,96,0.00,CLR,,0.00,WeatherDisplay:10.37,2013-02-07 12:29:00,
2013-02-07 07:35:00,62.2,61.0,30.05,ESE,115,0.0,0.0,96,0.00,CLR,,0.00,WeatherDisplay:10.37,2013-02-07 12:35:00,
2013-02-07 07:40:00,62.3,61.1,30.05,ESE,115,0.0,0.0,96,0.00,CLR,,0.00,WeatherDisplay:10.37,2013-02-07 12:40:00,
2013-02-07 07:45:00,62.6,61.7,30.05,ESE,115,0.0,0.0,97,0.00,CLR,,0.00,WeatherDisplay:10.37,2013-02-07 12:45:00,
2013-02-07 07:50:00,63.5,62.9,30.05,ESE,115,0.0,0.0,98,0.00,CLR,,0.00,WeatherDisplay:10.37,2013-02-07 12:50:00,
2013-02-07 07:55:00,64.3,63.7,30.06,ESE,115,0.0,0.0,98,0.00,CLR,,0.00,WeatherDisplay:10.37,2013-02-07 12:55:00,
2013-02-07 08:00:00,65.3,64.7,30.06,ESE,115,0.0,0.0,98,0.00,CLR,,0.00,WeatherDisplay:10.37,2013-02-07 13:00:00,
2013-02-07 08:05:00,65.9,65.3,30.06,ESE,115,0.0,0.0,98,0.00,CLR,,0.00,WeatherDisplay:10.37,2013-02-07 13:05:00,
2013-02-07 08:10:00,66.7,65.8,30.06,ESE,115,0.0,0.0,97,0.00,CLR,,0.00,WeatherDisplay:10.37,2013-02-07 13:10:00,
2013-02-07 08:15:00,67.6,66.4,30.06,ESE,115,0.0,0.0,96,0.00,CLR,,0.00,WeatherDisplay:10.37,2013-02-07 13:15:00,
2013-02-07 08:20:00,68.4,66.9,30.06,ESE,115,0.0,0.0,95,0.00,CLR,,0.00,WeatherDisplay:10.37,2013-02-07 13:20:00,
2013-02-07 08:25:00,69.4,67.3,30.06,ESE,115,0.0,0.0,93,0.00,CLR,,0.00,WeatherDisplay:10.37,2013-02-07 13:25:00,
2013-02-07 08:30:00,70.1,67.0,30.07,ESE,115,0.0,0.0,90,0.00,CLR,,0.00,WeatherDisplay:10.37,2013-02-07 13:30:00,
2013-02-07 08:35:00,70.8,67.7,30.07,ESE,115,0.0,0.0,90,0.00,CLR,,0.00,WeatherDisplay:10.37,2013-02-07 13:35:00,
2013-02-07 08:40:00,71.0,67.3,30.07,ESE,115,0.0,0.0,88,0.00,CLR,,0.00,WeatherDisplay:10.37,2013-02-07 13:40:00,
2013-02-07 08:45:00,71.7,67.3,30.07,ESE,115,1.3,2.0,86,0.00,CLR,,0.00,WeatherDisplay:10.37,2013-02-07 13:45:00,
2013-02-07 08:50:00,72.5,66.7,30.07,ESE,115,0.0,1.1,82,0.00,CLR,,0.00,WeatherDisplay:10.37,2013-02-07 13:50:00,
2013-02-07 08:55:00,73.2,67.4,30.06,ESE,115,0.1,1.1,82,0.00,CLR,,0.00,WeatherDisplay:10.37,2013-02-07 13:55:00,
2013-02-07 09:00:00,73.8,67.2,30.07,SE,133,2.5,4.0,80,0.00,CLR,,0.00,WeatherDisplay:10.37,2013-02-07 14:00:00,
2013-02-07 09:05:00,74.0,66.7,30.07,SE,145,2.7,4.6,78,0.00,CLR,,0.00,WeatherDisplay:10.37,2013-02-07 14:05:00,
2013-02-07 09:10:00,74.5,66.4,30.07,ESE,115,5.0,8.1,76,0.00,CLR,,0.00,WeatherDisplay:10.37,2013-02-07 14:10:00,
2013-02-07 09:15:00,74.9,66.1,30.07,SE,138,5.8,8.1,74,0.00,CLR,,0.00,WeatherDisplay:10.37,2013-02-07 14:15:00,
2013-02-07 09:20:00,75.3,66.0,30.07,East,101,4.4,4.4,73,0.00,CLR,,0.00,WeatherDisplay:10.37,2013-02-07 14:20:00,
2013-02-07 09:25:00,75.3,66.4,30.07,SSE,167,3.4,5.8,74,0.00,CLR,,0.00,WeatherDisplay:10.37,2013-02-07 14:25:00,
2013-02-07 09:30:00,75.4,65.7,30.06,ENE,77,5.4,10.4,72,0.00,CLR,,0.00,WeatherDisplay:10.37,2013-02-07 14:30:00,
2013-02-07 09:35:00,75.3,65.6,30.06,NE,44,4.9,8.1,72,0.00,CLR,,0.00,WeatherDisplay:10.37,2013-02-07 14:35:00,
2013-02-07 09:40:00,75.5,65.4,30.06,SE,133,5.8,9.2,71,0.00,CLR,,0.00,WeatherDisplay:10.37,2013-02-07 14:40:00,
2013-02-07 09:45:00,75.2,65.1,30.07,South,170,6.6,8.1,71,0.00,CLR,,0.00,WeatherDisplay:10.37,2013-02-07 14:45:00,
2013-02-07 09:50:00,75.0,65.8,30.07,ESE,111,2.0,4.0,73,0.00,CLR,,0.00,WeatherDisplay:10.37,2013-02-07 14:50:00,
2013-02-07 09:55:00,75.5,65.8,30.07,East,96,0.5,2.0,72,0.00,CLR,,0.00,WeatherDisplay:10.37,2013-02-07 14:55:00,
2013-02-07 10:00:00,75.9,65.8,30.07,East,98,5.0,5.0,71,0.00,CLR,,0.00,WeatherDisplay:10.37,2013-02-07 15:00:00,
2013-02-07 10:05:00,76.1,66.0,30.07,South,174,3.2,4.6,71,0.00,CLR,,0.00,WeatherDisplay:10.37,2013-02-07 15:05:00,
2013-02-07 10:10:00,76.0,65.9,30.07,South,182,2.6,5.8,71,0.00,CLR,,0.00,WeatherDisplay:10.37,2013-02-07 15:10:00,
2013-02-07 10:15:00,76.2,65.7,30.07,SE,144,4.4,8.1,70,0.00,CLR,,0.00,WeatherDisplay:10.37,2013-02-07 15:15:00,
2013-02-07 10:20:00,76.1,64.8,30.07,East,90,3.1,5.8,68,0.00,CLR,,0.00,WeatherDisplay:10.37,2013-02-07 15:20:00,
2013-02-07 10:25:00,76.4,65.5,30.06,ENE,76,4.4,8.1,69,0.00,CLR,,0.00,WeatherDisplay:10.37,2013-02-07 15:25:00,
2013-02-07 10:30:00,76.4,65.1,30.06,SSE,162,1.9,3.5,68,0.00,CLR,,0.00,WeatherDisplay:10.37,2013-02-07 15:30:00,
2013-02-07 10:35:00,76.9,65.5,30.06,ESE,116,2.0,3.5,68,0.00,CLR,,0.00,WeatherDisplay:10.37,2013-02-07 15:35:00,
2013-02-07 10:40:00,76.8,65.0,30.06,ESE,103,6.7,9.2,67,0.00,CLR,,0.00,WeatherDisplay:10.37,2013-02-07 15:40:00,
2013-02-07 10:45:00,76.7,65.8,30.06,SSW,200,2.3,3.5,69,0.00,CLR,,0.00,WeatherDisplay:10.37,2013-02-07 15:45:00,
2013-02-07 10:50:00,76.8,64.6,30.06,ESE,114,3.2,4.0,66,0.00,CLR,,0.00,WeatherDisplay:10.37,2013-02-07 15:50:00,
2013-02-07 10:55:00,76.7,64.5,30.06,SE,141,8.2,9.2,66,0.00,CLR,,0.00,WeatherDisplay:10.37,2013-02-07 15:55:00,
2013-02-07 11:00:00,76.9,64.7,30.06,South,172,4.9,10.4,66,0.00,CLR,,0.00,WeatherDisplay:10.37,2013-02-07 16:00:00,
2013-02-07 11:05:00,77.4,64.7,30.06,East,98,6.3,12.7,65,0.00,CLR,,0.00,WeatherDisplay:10.37,2013-02-07 16:05:00,
2013-02-07 11:10:00,77.1,63.5,30.05,East,98,6.5,9.2,63,0.00,CLR,,0.00,WeatherDisplay:10.37,2013-02-07 16:10:00,
2013-02-07 11:15:00,77.1,64.9,30.05,ESE,105,1.9,2.3,66,0.00,CLR,,0.00,WeatherDisplay:10.37,2013-02-07 16:15:00,
2013-02-07 11:20:00,77.3,64.6,30.05,ESE,110,7.1,9.2,65,0.00,CLR,,0.00,WeatherDisplay:10.37,2013-02-07 16:20:00,
2013-02-07 11:25:00,77.1,64.0,30.05,East,94,7.9,8.1,64,0.00,CLR,,0.00,WeatherDisplay:10.37,2013-02-07 16:25:00,
2013-02-07 11:30:00,77.2,65.4,30.04,ENE,74,4.8,8.1,67,0.00,CLR,,0.00,WeatherDisplay:10.37,2013-02-07 16:30:00,
2013-02-07 11:35:00,77.4,65.1,30.04,SE,144,6.0,8.1,66,0.00,CLR,,0.00,WeatherDisplay:10.37,2013-02-07 16:35:00,
2013-02-07 11:41:00,77.3,65.1,30.04,East,101,4.4,8.1,66,0.00,CLR,,0.00,WeatherDisplay:10.37,2013-02-07 16:41:00,
2013-02-07 11:46:00,77.5,65.2,30.03,ESE,103,4.6,11.5,66,0.00,CLR,,0.00,WeatherDisplay:10.37,2013-02-07 16:46:00,
2013-02-07 11:51:00,77.4,64.7,30.03,South,186,5.0,9.2,65,0.00,CLR,,0.00,WeatherDisplay:10.37,2013-02-07 16:51:00,
2013-02-07 11:56:00,77.7,63.6,30.03,ESE,103,6.6,10.4,62,0.00,CLR,,0.00,WeatherDisplay:10.37,2013-02-07 16:56:00,
2013-02-07 12:01:00,78.0,65.3,30.03,East,94,3.9,4.6,65,0.00,CLR,,0.00,WeatherDisplay:10.37,2013-02-07 17:01:00,
2013-02-07 12:06:00,78.0,63.9,30.02,SE,142,2.2,3.5,62,0.00,CLR,,0.00,WeatherDisplay:10.37,2013-02-07 17:06:00,
2013-02-07 12:11:00,77.6,64.5,30.02,ESE,102,3.9,9.2,64,0.00,CLR,,0.00,WeatherDisplay:10.37,2013-02-07 17:11:00,
2013-02-07 12:16:00,77.3,63.3,30.01,ENE,57,5.6,6.9,62,0.00,CLR,,0.00,WeatherDisplay:10.37,2013-02-07 17:16:00,
2013-02-07 12:21:00,77.8,63.7,30.01,ESE,117,5.7,10.4,62,0.00,CLR,,0.00,WeatherDisplay:10.37,2013-02-07 17:21:00,
2013-02-07 12:26:00,78.0,64.8,30.01,SE,141,3.5,6.9,64,0.00,CLR,,0.00,WeatherDisplay:10.37,2013-02-07 17:26:00,
2013-02-07 12:31:00,77.9,64.3,30.00,ESE,118,8.6,12.7,63,0.00,CLR,,0.00,WeatherDisplay:10.37,2013-02-07 17:31:00,
2013-02-07 12:36:00,77.9,63.4,30.00,South,178,5.8,8.1,61,0.00,CLR,,0.00,WeatherDisplay:10.37,2013-02-07 17:36:00,
2013-02-07 12:41:00,77.9,64.3,30.00,SE,136,1.7,3.5,63,0.00,CLR,,0.00,WeatherDisplay:10.37,2013-02-07 17:41:00,
2013-02-07 12:46:00,78.5,64.9,29.99,SE,131,4.9,9.2,63,0.00,CLR,,0.00,WeatherDisplay:10.37,2013-02-07 17:46:00,
2013-02-07 12:51:00,78.5,63.9,29.99,ESE,117,3.8,6.9,61,0.00,CLR,,0.00,WeatherDisplay:10.37,2013-02-07 17:51:00,
2013-02-07 12:56:00,78.5,65.3,29.99,SSE,161,2.9,6.9,64,0.00,CLR,,0.00,WeatherDisplay:10.37,2013-02-07 17:56:00,
2013-02-07 13:01:00,78.9,64.8,29.98,SSE,167,6.9,10.4,62,0.00,CLR,,0.00,WeatherDisplay:10.37,2013-02-07 18:01:00,
2013-02-07 13:06:00,78.8,64.7,29.98,SE,138,7.1,9.0,62,0.00,CLR,,0.00,WeatherDisplay:10.37,2013-02-07 18:06:00,
2013-02-07 13:11:00,78.9,64.3,29.98,South,173,3.9,5.8,61,0.00,CLR,,0.00,WeatherDisplay:10.37,2013-02-07 18:11:00,
2013-02-07 13:16:00,78.7,63.6,29.98,SE,145,1.7,8.1,60,0.00,CLR,,0.00,WeatherDisplay:10.37,2013-02-07 18:16:00,
2013-02-07 13:21:00,78.5,64.4,29.97,SSE,151,6.2,6.2,62,0.00,CLR,,0.00,WeatherDisplay:10.37,2013-02-07 18:21:00,
2013-02-07 13:26:00,78.4,64.3,29.98,South,169,3.7,9.2,62,0.00,CLR,,0.00,WeatherDisplay:10.37,2013-02-07 18:26:00,
2013-02-07 13:31:00,78.4,64.3,29.97,SE,135,4.0,4.0,62,0.00,CLR,,0.00,WeatherDisplay:10.37,2013-02-07 18:31:00,
2013-02-07 13:36:00,78.4,64.8,29.97,SE,136,4.1,4.6,63,0.00,CLR,,0.00,WeatherDisplay:10.37,2013-02-07 18:36:00,
2013-02-07 13:41:00,78.4,64.3,29.97,ESE,111,3.9,4.6,62,0.00,CLR,,0.00,WeatherDisplay:10.37,2013-02-07 18:41:00,
2013-02-07 13:46:00,78.6,64.9,29.96,ESE,104,5.1,8.1,63,0.00,CLR,,0.00,WeatherDisplay:10.37,2013-02-07 18:46:00,
2013-02-07 13:51:00,78.3,65.1,29.96,SE,126,6.0,8.1,64,0.00,CLR,,0.00,WeatherDisplay:10.37,2013-02-07 18:51:00,
2013-02-07 13:56:00,78.6,64.5,29.96,South,183,5.1,5.8,62,0.00,CLR,,0.00,WeatherDisplay:10.37,2013-02-07 18:56:00,
2013-02-07 14:01:00,78.5,63.9,29.97,SSE,153,1.3,3.5,61,0.00,CLR,,0.00,WeatherDisplay:10.37,2013-02-07 19:01:00,
2013-02-07 14:06:00,79.0,64.9,29.97,SW,223,5.7,6.0,62,0.00,CLR,,0.00,WeatherDisplay:10.37,2013-02-07 19:06:00,
2013-02-07 14:11:00,79.8,64.7,29.96,East,81,3.0,5.8,60,0.00,CLR,,0.00,WeatherDisplay:10.37,2013-02-07 19:11:00,
2013-02-07 14:16:00,79.1,64.5,29.96,SSE,167,8.8,10.4,61,0.00,CLR,,0.00,WeatherDisplay:10.37,2013-02-07 19:16:00,
2013-02-07 14:21:00,78.5,64.4,29.96,SSE,150,4.5,4.6,62,0.00,CLR,,0.00,WeatherDisplay:10.37,2013-02-07 19:21:00,
2013-02-07 14:26:00,78.5,65.3,29.96,SSW,197,0.4,0.0,64,0.00,CLR,,0.00,WeatherDisplay:10.37,2013-02-07 19:26:00,
2013-02-07 14:31:00,78.6,64.9,29.95,South,178,2.3,3.5,63,0.00,CLR,,0.00,WeatherDisplay:10.37,2013-02-07 19:31:00,
2013-02-07 14:36:00,78.9,65.2,29.95,East,99,3.2,6.0,63,0.00,CLR,,0.00,WeatherDisplay:10.37,2013-02-07 19:36:00,
2013-02-07 14:41:00,79.5,65.3,29.95,South,178,6.2,10.4,62,0.00,CLR,,0.00,WeatherDisplay:10.37,2013-02-07 19:41:00,
2013-02-07 14:46:00,80.1,65.4,29.95,SSW,200,5.0,7.0,61,0.00,CLR,,0.00,WeatherDisplay:10.37,2013-02-07 19:46:00,
2013-02-07 14:51:00,80.2,65.1,29.96,South,190,3.4,4.6,60,0.00,CLR,,0.00,WeatherDisplay:10.37,2013-02-07 19:51:00,
2013-02-07 14:56:00,79.9,65.7,29.95,South,174,1.6,3.5,62,0.00,CLR,,0.00,WeatherDisplay:10.37,2013-02-07 19:56:00,
2013-02-07 15:01:00,79.4,65.7,29.95,SE,130,5.1,6.9,63,0.00,CLR,,0.00,WeatherDisplay:10.37,2013-02-07 20:01:00,
2013-02-07 15:06:00,78.7,65.5,29.95,South,172,2.7,6.9,64,0.00,CLR,,0.00,WeatherDisplay:10.37,2013-02-07 20:06:00,
2013-02-07 15:11:00,78.7,65.9,29.95,South,174,1.6,3.5,65,0.00,CLR,,0.00,WeatherDisplay:10.37,2013-02-07 20:11:00,
2013-02-07 15:16:00,79.2,65.5,29.95,SSE,168,2.5,3.5,63,0.00,CLR,,0.00,WeatherDisplay:10.37,2013-02-07 20:16:00,
2013-02-07 15:21:00,79.2,65.5,29.94,SE,140,7.8,10.4,63,0.00,CLR,,0.00,WeatherDisplay:10.37,2013-02-07 20:21:00,
2013-02-07 15:26:00,78.9,65.7,29.94,SSW,205,4.2,8.1,64,0.00,CLR,,0.00,WeatherDisplay:10.37,2013-02-07 20:26:00,
2013-02-07 15:31:00,79.3,66.1,29.94,SSE,153,5.8,8.1,64,0.00,CLR,,0.00,WeatherDisplay:10.37,2013-02-07 20:31:00,
2013-02-07 15:37:00,79.1,66.3,29.94,SE,125,7.0,9.2,65,0.00,CLR,,0.00,WeatherDisplay:10.37,2013-02-07 20:37:00,
2013-02-07 15:41:00,78.9,67.0,29.94,SSE,167,2.0,3.5,67,0.00,CLR,,0.00,WeatherDisplay:10.37,2013-02-07 20:41:00,
2013-02-07 15:47:00,78.8,66.5,29.94,South,173,2.0,2.3,66,0.00,CLR,,0.00,WeatherDisplay:10.37,2013-02-07 20:47:00,
2013-02-07 15:52:00,78.9,66.6,29.94,SE,135,2.9,5.8,66,0.00,CLR,,0.00,WeatherDisplay:10.37,2013-02-07 20:52:00,
2013-02-07 15:57:00,79.0,66.2,29.94,South,175,1.6,3.5,65,0.00,CLR,,0.00,WeatherDisplay:10.37,2013-02-07 20:57:00,
2013-02-07 16:02:00,79.4,64.8,29.95,South,186,5.8,6.9,61,0.00,CLR,,0.00,WeatherDisplay:10.37,2013-02-07 21:02:00,
2013-02-07 16:07:00,79.9,64.3,29.94,SSE,166,1.6,3.5,59,0.00,CLR,,0.00,WeatherDisplay:10.37,2013-02-07 21:07:00,
2013-02-07 16:12:00,79.9,65.2,29.94,SSW,192,2.8,3.5,61,0.00,CLR,,0.00,WeatherDisplay:10.37,2013-02-07 21:12:00,
2013-02-07 16:17:00,80.0,64.9,29.94,SSW,213,2.6,3.5,60,0.00,CLR,,0.00,WeatherDisplay:10.37,2013-02-07 21:17:00,
2013-02-07 16:22:00,80.1,65.0,29.94,SSW,201,1.7,3.5,60,0.00,CLR,,0.00,WeatherDisplay:10.37,2013-02-07 21:22:00,
2013-02-07 16:27:00,80.0,64.9,29.94,South,191,3.0,4.6,60,0.00,CLR,,0.00,WeatherDisplay:10.37,2013-02-07 21:27:00,
2013-02-07 16:32:00,79.8,65.2,29.94,South,190,3.4,6.9,61,0.00,CLR,,0.00,WeatherDisplay:10.37,2013-02-07 21:32:00,
2013-02-07 16:37:00,79.6,65.0,29.94,South,178,4.2,4.6,61,0.00,CLR,,0.00,WeatherDisplay:10.37,2013-02-07 21:37:00,
2013-02-07 16:42:00,79.4,65.2,29.94,South,175,1.4,3.5,62,0.00,CLR,,0.00,WeatherDisplay:10.37,2013-02-07 21:42:00,
2013-02-07 16:47:00,79.1,65.4,29.94,SSW,207,3.5,3.5,63,0.00,CLR,,0.00,WeatherDisplay:10.37,2013-02-07 21:47:00,
2013-02-07 16:52:00,79.1,65.4,29.94,SSW,207,2.3,3.5,63,0.00,CLR,,0.00,WeatherDisplay:10.37,2013-02-07 21:52:00,
2013-02-07 16:57:00,78.9,65.2,29.94,SSW,202,3.2,3.2,63,0.00,CLR,,0.00,WeatherDisplay:10.37,2013-02-07 21:57:00,
2013-02-07 17:02:00,78.9,65.7,29.94,South,170,2.0,2.3,64,0.00,CLR,,0.00,WeatherDisplay:10.37,2013-02-07 22:02:00,
2013-02-07 17:07:00,78.8,65.6,29.94,SSW,209,2.5,5.8,64,0.00,CLR,,0.00,WeatherDisplay:10.37,2013-02-07 22:07:00,
2013-02-07 17:12:00,78.8,65.1,29.94,SSW,198,3.0,3.5,63,0.00,CLR,,0.00,WeatherDisplay:10.37,2013-02-07 22:12:00,
2013-02-07 17:17:00,78.8,65.6,29.94,SE,124,1.0,3.5,64,0.00,CLR,,0.00,WeatherDisplay:10.37,2013-02-07 22:17:00,
2013-02-07 17:22:00,78.4,65.7,29.94,SE,144,3.0,3.5,65,0.00,CLR,,0.00,WeatherDisplay:10.37,2013-02-07 22:22:00,
2013-02-07 17:27:00,78.1,65.4,29.94,South,177,2.5,5.8,65,0.00,CLR,,0.00,WeatherDisplay:10.37,2013-02-07 22:27:00,
2013-02-07 17:32:00,77.7,65.0,29.94,South,169,3.4,4.6,65,0.00,CLR,,0.00,WeatherDisplay:10.37,2013-02-07 22:32:00,
2013-02-07 17:37:00,77.3,64.6,29.94,SE,124,2.5,5.8,65,0.00,CLR,,0.00,WeatherDisplay:10.37,2013-02-07 22:37:00,
2013-02-07 17:42:00,77.1,64.0,29.95,SE,132,1.1,3.5,64,0.00,CLR,,0.00,WeatherDisplay:10.37,2013-02-07 22:42:00,
2013-02-07 17:47:00,76.9,64.2,29.95,SE,132,2.0,2.3,65,0.00,CLR,,0.00,WeatherDisplay:10.37,2013-02-07 22:47:00,
2013-02-07 17:52:00,76.7,64.0,29.95,SE,127,3.6,6.9,65,0.00,CLR,,0.00,WeatherDisplay:10.37,2013-02-07 22:52:00,
2013-02-07 17:57:00,76.6,64.4,29.95,South,188,1.6,3.5,66,0.00,CLR,,0.00,WeatherDisplay:10.37,2013-02-07 22:57:00,
2013-02-07 18:02:00,76.4,64.2,29.95,South,188,1.4,3.0,66,0.00,CLR,,0.00,WeatherDisplay:10.37,2013-02-07 23:02:00,
2013-02-07 18:07:00,76.1,63.5,29.95,SSE,155,1.9,3.5,65,0.00,CLR,,0.00,WeatherDisplay:10.37,2013-02-07 23:07:00,
2013-02-07 18:12:00,75.8,63.6,29.95,SSE,154,1.2,3.5,66,0.00,CLR,,0.00,WeatherDisplay:10.37,2013-02-07 23:12:00,
2013-02-07 18:17:00,75.6,63.4,29.95,SSW,195,1.6,4.6,66,0.00,CLR,,0.00,WeatherDisplay:10.37,2013-02-07 23:17:00,
2013-02-07 18:22:00,75.3,63.6,29.96,SSE,164,1.7,3.5,67,0.00,CLR,,0.00,WeatherDisplay:10.37,2013-02-07 23:22:00,
2013-02-07 18:27:00,75.0,63.7,29.96,SSE,163,2.5,3.5,68,0.00,CLR,,0.00,WeatherDisplay:10.37,2013-02-07 23:27:00,
2013-02-07 18:32:00,74.8,63.9,29.96,SSE,164,0.5,3.5,69,0.00,CLR,,0.00,WeatherDisplay:10.37,2013-02-07 23:32:00,
2013-02-07 18:37:00,74.4,63.6,29.96,SE,144,1.8,4.6,69,0.00,CLR,,0.00,WeatherDisplay:10.37,2013-02-07 23:37:00,
2013-02-07 18:42:00,74.3,63.9,29.96,South,181,2.4,4.6,70,0.00,CLR,,0.00,WeatherDisplay:10.37,2013-02-07 23:42:00,
2013-02-07 18:47:00,74.1,64.1,29.96,SE,146,1.6,3.5,71,0.00,CLR,,0.00,WeatherDisplay:10.37,2013-02-07 23:47:00,
2013-02-07 18:52:00,73.9,63.9,29.96,South,188,0.1,1.1,71,0.00,CLR,,0.00,WeatherDisplay:10.37,2013-02-07 23:52:00,
2013-02-07 18:57:00,73.6,64.0,29.96,South,180,1.0,4.6,72,0.00,CLR,,0.00,WeatherDisplay:10.37,2013-02-07 23:57:00,
2013-02-07 19:02:00,73.4,64.2,29.96,South,171,0.1,3.5,73,0.00,CLR,,0.00,WeatherDisplay:10.37,2013-02-08 00:02:00,
2013-02-07 19:07:00,73.3,64.5,29.97,South,187,1.3,3.5,74,0.00,CLR,,0.00,WeatherDisplay:10.37,2013-02-08 00:07:00,
2013-02-07 19:13:00,73.1,64.3,29.97,South,187,0.0,0.0,74,0.00,CLR,,0.00,WeatherDisplay:10.37,2013-02-08 00:13:00,
2013-02-07 19:18:00,72.9,64.5,29.97,South,187,0.0,0.0,75,0.00,CLR,,0.00,WeatherDisplay:10.37,2013-02-08 00:18:00,
2013-02-07 19:23:00,72.7,64.7,29.98,South,187,0.0,0.0,76,0.00,CLR,,0.00,WeatherDisplay:10.37,2013-02-08 00:23:00,
2013-02-07 19:28:00,72.5,64.9,29.98,South,187,0.0,0.0,77,0.00,CLR,,0.00,WeatherDisplay:10.37,2013-02-08 00:28:00,
2013-02-07 19:33:00,72.0,64.4,29.98,South,187,0.0,0.0,77,0.00,CLR,,0.00,WeatherDisplay:10.37,2013-02-08 00:33:00,
2013-02-07 19:38:00,71.5,63.9,29.98,South,187,0.0,0.0,77,0.00,CLR,,0.00,WeatherDisplay:10.37,2013-02-08 00:38:00,
2013-02-07 19:43:00,71.1,64.6,29.98,South,187,0.0,0.0,80,0.00,CLR,,0.00,WeatherDisplay:10.37,2013-02-08 00:43:00,
2013-02-07 19:48:00,70.7,64.6,29.98,South,187,0.0,0.0,81,0.00,CLR,,0.00,WeatherDisplay:10.37,2013-02-08 00:48:00,
2013-02-07 19:53:00,70.4,64.6,29.99,South,187,0.0,0.0,82,0.00,CLR,,0.00,WeatherDisplay:10.37,2013-02-08 00:53:00,
2013-02-07 19:58:00,70.1,64.7,29.99,South,187,0.0,0.0,83,0.00,CLR,,0.00,WeatherDisplay:10.37,2013-02-08 00:58:00,
2013-02-07 20:03:00,69.8,64.4,29.99,South,187,0.0,0.0,83,0.00,CLR,,0.00,WeatherDisplay:10.37,2013-02-08 01:03:00,
2013-02-07 20:08:00,69.4,64.4,29.99,South,187,0.0,0.0,84,0.00,CLR,,0.00,WeatherDisplay:10.37,2013-02-08 01:08:00,
2013-02-07 20:13:00,69.0,64.0,29.99,South,187,0.0,0.0,84,0.00,CLR,,0.00,WeatherDisplay:10.37,2013-02-08 01:13:00,
2013-02-07 20:18:00,68.8,64.1,29.99,South,187,0.0,0.0,85,0.00,CLR,,0.00,WeatherDisplay:10.37,2013-02-08 01:18:00,
2013-02-07 20:23:00,68.6,63.9,29.99,South,187,0.0,0.0,85,0.00,CLR,,0.00,WeatherDisplay:10.37,2013-02-08 01:23:00,
2013-02-07 20:28:00,68.4,63.7,30.00,South,187,0.0,0.0,85,0.00,CLR,,0.00,WeatherDisplay:10.37,2013-02-08 01:28:00,
2013-02-07 20:33:00,68.2,63.9,30.00,South,187,0.0,0.0,86,0.00,CLR,,0.00,WeatherDisplay:10.37,2013-02-08 01:33:00,
2013-02-07 20:38:00,68.0,64.0,30.00,South,187,0.0,0.0,87,0.00,CLR,,0.00,WeatherDisplay:10.37,2013-02-08 01:38:00,
2013-02-07 20:43:00,67.7,63.7,29.99,South,187,0.0,0.0,87,0.00,CLR,,0.00,WeatherDisplay:10.37,2013-02-08 01:43:00,
2013-02-07 20:48:00,67.6,63.6,30.00,South,187,0.0,0.0,87,0.00,CLR,,0.00,WeatherDisplay:10.37,2013-02-08 01:48:00,
2013-02-07 20:53:00,67.5,63.5,30.00,South,187,0.0,0.0,87,0.00,CLR,,0.00,WeatherDisplay:10.37,2013-02-08 01:53:00,
2013-02-07 20:58:00,67.6,63.9,30.00,South,187,0.0,0.0,88,0.00,CLR,,0.00,WeatherDisplay:10.37,2013-02-08 01:58:00,
2013-02-07 21:03:00,67.6,64.2,30.00,South,187,0.0,0.0,89,0.00,CLR,,0.00,WeatherDisplay:10.37,2013-02-08 02:03:00,
2013-02-07 21:08:00,67.6,63.9,30.00,South,187,0.0,0.0,88,0.00,CLR,,0.00,WeatherDisplay:10.37,2013-02-08 02:08:00,
2013-02-07 21:13:00,67.4,63.7,30.01,South,187,0.0,0.0,88,0.00,CLR,,0.00,WeatherDisplay:10.37,2013-02-08 02:13:00,
2013-02-07 21:18:00,67.3,63.6,30.01,South,187,0.0,0.0,88,0.00,CLR,,0.00,WeatherDisplay:10.37,2013-02-08 02:18:00,
2013-02-07 21:23:00,67.2,63.5,30.01,South,187,0.0,0.0,88,0.00,CLR,,0.00,WeatherDisplay:10.37,2013-02-08 02:23:00,
2013-02-07 21:28:00,67.1,63.7,30.00,South,187,0.0,0.0,89,0.00,CLR,,0.00,WeatherDisplay:10.37,2013-02-08 02:28:00,
2013-02-07 21:33:00,67.0,63.6,30.00,South,187,0.0,0.0,89,0.00,CLR,,0.00,WeatherDisplay:10.37,2013-02-08 02:33:00,
2013-02-07 21:38:00,67.0,63.6,30.00,South,187,0.0,0.0,89,0.00,CLR,,0.00,WeatherDisplay:10.37,2013-02-08 02:38:00,
2013-02-07 21:43:00,66.8,63.8,30.00,South,187,0.0,0.0,90,0.00,CLR,,0.00,WeatherDisplay:10.37,2013-02-08 02:43:00,
2013-02-07 21:48:00,66.7,63.7,30.00,South,187,0.0,0.0,90,0.00,CLR,,0.00,WeatherDisplay:10.37,2013-02-08 02:48:00,
2013-02-07 21:53:00,66.6,63.6,30.00,South,187,0.0,0.0,90,0.00,CLR,,0.00,WeatherDisplay:10.37,2013-02-08 02:53:00,
2013-02-07 21:58:00,66.5,63.5,30.00,South,187,0.0,0.0,90,0.00,CLR,,0.00,WeatherDisplay:10.37,2013-02-08 02:58:00,
2013-02-07 22:03:00,66.5,63.8,30.00,South,187,0.0,0.0,91,0.00,CLR,,0.00,WeatherDisplay:10.37,2013-02-08 03:03:00,
2013-02-07 22:08:00,66.4,63.7,30.00,South,187,0.0,0.0,91,0.00,CLR,,0.00,WeatherDisplay:10.37,2013-02-08 03:08:00,
2013-02-07 22:13:00,66.4,64.0,29.99,South,187,0.0,0.0,92,0.00,CLR,,0.00,WeatherDisplay:10.37,2013-02-08 03:13:00,
2013-02-07 22:18:00,66.3,63.9,29.99,South,187,0.0,0.0,92,0.00,CLR,,0.00,WeatherDisplay:10.37,2013-02-08 03:18:00,
2013-02-07 22:23:00,66.2,63.8,29.99,South,187,0.1,1.1,92,0.00,CLR,,0.00,WeatherDisplay:10.37,2013-02-08 03:23:00,
2013-02-07 22:28:00,66.1,63.7,29.99,South,187,0.0,0.0,92,0.00,CLR,,0.00,WeatherDisplay:10.37,2013-02-08 03:28:00,
2013-02-07 22:33:00,66.1,64.0,29.99,South,188,1.1,2.3,93,0.00,CLR,,0.00,WeatherDisplay:10.37,2013-02-08 03:33:00,
2013-02-07 22:38:00,66.1,64.0,29.99,South,189,0.3,1.1,93,0.00,CLR,,0.00,WeatherDisplay:10.37,2013-02-08 03:38:00,
2013-02-07 22:44:00,66.3,64.2,29.99,South,189,0.0,2.3,93,0.00,CLR,,0.00,WeatherDisplay:10.37,2013-02-08 03:44:00,
2013-02-07 22:49:00,66.5,64.4,29.99,South,189,1.3,3.5,93,0.00,CLR,,0.00,WeatherDisplay:10.37,2013-02-08 03:49:00,
2013-02-07 22:54:00,66.7,64.6,29.99,South,189,0.9,3.5,93,0.00,CLR,,0.00,WeatherDisplay:10.37,2013-02-08 03:54:00,
2013-02-07 22:59:00,66.8,64.7,29.99,South,189,0.1,2.3,93,0.00,CLR,,0.00,WeatherDisplay:10.37,2013-02-08 03:59:00,
2013-02-07 23:04:00,67.0,64.9,29.99,SSW,196,0.7,1.1,93,0.00,CLR,,0.00,WeatherDisplay:10.37,2013-02-08 04:04:00,
2013-02-07 23:09:00,67.1,65.0,29.98,SSW,196,0.6,2.3,93,0.00,CLR,,0.00,WeatherDisplay:10.37,2013-02-08 04:09:00,
2013-02-07 23:14:00,67.2,64.8,29.99,SSW,198,1.3,0.0,92,0.00,CLR,,0.00,WeatherDisplay:10.37,2013-02-08 04:14:00,
2013-02-07 23:19:00,67.3,64.9,29.99,SSW,197,0.9,3.5,92,0.00,CLR,,0.00,WeatherDisplay:10.37,2013-02-08 04:19:00,
2013-02-07 23:24:00,67.5,65.1,29.98,SSW,194,0.6,1.1,92,0.00,CLR,,0.00,WeatherDisplay:10.37,2013-02-08 04:24:00,
2013-02-07 23:29:00,67.5,65.1,29.98,South,186,0.3,2.3,92,0.00,CLR,,0.00,WeatherDisplay:10.37,2013-02-08 04:29:00,
2013-02-07 23:34:00,67.4,65.0,29.98,South,190,1.2,2.3,92,0.00,CLR,,0.00,WeatherDisplay:10.37,2013-02-08 04:34:00,
2013-02-07 23:39:00,67.5,65.1,29.97,South,190,0.6,2.3,92,0.00,CLR,,0.00,WeatherDisplay:10.37,2013-02-08 04:39:00,
2013-02-07 23:44:00,67.6,65.2,29.97,South,188,0.7,2.3,92,0.00,CLR,,0.00,WeatherDisplay:10.37,2013-02-08 04:44:00,
2013-02-07 23:49:00,67.7,65.3,29.97,South,187,0.7,1.1,92,0.00,CLR,,0.00,WeatherDisplay:10.37,2013-02-08 04:49:00,
2013-02-07 23:54:00,67.8,65.4,29.97,South,189,0.1,1.1,92,0.00,CLR,,0.00,WeatherDisplay:10.37,2013-02-08 04:54:00,
2013-02-07 23:59:00,67.9,65.5,29.97,South,188,0.1,1.1,92,0.00,CLR,,0.00,WeatherDisplay:10.37,2013-02-08 04:59:00,